SHU313 VTBS-VCBI

Flight info

Callsign SHU313
Flight time 3h 7m
Altitude 34000
Route PASTO L301 DWI P762 ESPAP DCT DORTA
Aircraft A320/M-SDE3FGHIRWY/LB1

Departure

Time 2026-04-23 21:21
Airport Suvarnabhumi Airport (VTBS)

Arrival

Time 2026-04-24 00:29
Airport Bandaranaike International Colombo Airport (VCBI)
Time Latitude Longitude Altitude Speed Heading
2026-04-23 20:56 13.68940 100.74319 8 ft 0 kts 284°
2026-04-23 20:58 13.68940 100.74320 8 ft 1 kts 284°
2026-04-23 20:58 13.68936 100.74336 10 ft 3 kts 283°
2026-04-23 20:58 13.68932 100.74356 11 ft 3 kts 280°
2026-04-23 20:59 13.68928 100.74377 11 ft 3 kts 277°
2026-04-23 20:59 13.68926 100.74397 9 ft 3 kts 270°
2026-04-23 20:59 13.68928 100.74418 10 ft 3 kts 253°
2026-04-23 20:59 13.68935 100.74433 11 ft 2 kts 210°
2026-04-23 21:00 13.68940 100.74436 8 ft 0 kts 194°
2026-04-23 21:02 13.68909 100.74428 8 ft 7 kts 194°
2026-04-23 21:02 13.68857 100.74415 8 ft 8 kts 194°
2026-04-23 21:02 13.68801 100.74395 8 ft 9 kts 215°
2026-04-23 21:02 13.68785 100.74336 8 ft 8 kts 276°
2026-04-23 21:03 13.68802 100.74284 8 ft 9 kts 288°
2026-04-23 21:03 13.68818 100.74219 9 ft 9 kts 283°
2026-04-23 21:03 13.68832 100.74161 9 ft 8 kts 283°
2026-04-23 21:03 13.68805 100.74104 9 ft 11 kts 223°
2026-04-23 21:04 13.68714 100.74080 9 ft 15 kts 193°
2026-04-23 21:04 13.68613 100.74050 9 ft 16 kts 194°
2026-04-23 21:04 13.68505 100.74022 9 ft 16 kts 194°
2026-04-23 21:04 13.68394 100.73993 9 ft 17 kts 195°
2026-04-23 21:05 13.68273 100.73959 9 ft 19 kts 195°
2026-04-23 21:05 13.68142 100.73925 9 ft 20 kts 194°
2026-04-23 21:05 13.68017 100.73894 8 ft 18 kts 194°
2026-04-23 21:05 13.67892 100.73861 8 ft 19 kts 194°
2026-04-23 21:06 13.67758 100.73825 8 ft 20 kts 193°
2026-04-23 21:06 13.67636 100.73792 9 ft 18 kts 197°
2026-04-23 21:06 13.67509 100.73757 9 ft 20 kts 194°
2026-04-23 21:06 13.67382 100.73760 9 ft 19 kts 160°
2026-04-23 21:07 13.67262 100.73811 9 ft 17 kts 179°
2026-04-23 21:07 13.67154 100.73771 9 ft 17 kts 194°
2026-04-23 21:07 13.67041 100.73741 9 ft 17 kts 194°
2026-04-23 21:07 13.66923 100.73712 11 ft 18 kts 193°
2026-04-23 21:08 13.66804 100.73683 9 ft 18 kts 194°
2026-04-23 21:08 13.66681 100.73650 9 ft 18 kts 194°
2026-04-23 21:08 13.66556 100.73618 9 ft 19 kts 194°
2026-04-23 21:08 13.66490 100.73600 10 ft 0 kts 194°
2026-04-23 21:09 13.66487 100.73606 10 ft 2 kts 124°
2026-04-23 21:09 13.66500 100.73612 11 ft 3 kts
2026-04-23 21:09 13.66556 100.73618 9 ft 11 kts 11°
2026-04-23 21:10 13.66630 100.73634 9 ft 10 kts 12°
2026-04-23 21:10 13.66693 100.73648 9 ft 9 kts 13°
2026-04-23 21:10 13.66773 100.73670 9 ft 16 kts 15°
2026-04-23 21:10 13.66896 100.73705 9 ft 18 kts 15°
2026-04-23 21:11 13.67008 100.73736 9 ft 16 kts 15°
2026-04-23 21:11 13.67110 100.73765 9 ft 15 kts 15°
2026-04-23 21:11 13.67219 100.73794 9 ft 19 kts 14°
2026-04-23 21:11 13.67352 100.73828 9 ft 19 kts 13°
2026-04-23 21:12 13.67472 100.73857 9 ft 17 kts 13°
2026-04-23 21:12 13.67578 100.73882 9 ft 15 kts 13°
2026-04-23 21:12 13.67671 100.73906 9 ft 13 kts 15°
2026-04-23 21:12 13.67752 100.73928 9 ft 11 kts 15°
2026-04-23 21:13 13.67822 100.73948 10 ft 10 kts 15°
2026-04-23 21:13 13.67898 100.73969 8 ft 12 kts 15°
2026-04-23 21:13 13.67990 100.73996 8 ft 15 kts 12°
2026-04-23 21:13 13.68105 100.74018 8 ft 18 kts 11°
2026-04-23 21:14 13.68222 100.74047 9 ft 16 kts 15°
2026-04-23 21:14 13.68324 100.74075 9 ft 14 kts 15°
2026-04-23 21:14 13.68412 100.74099 9 ft 12 kts 15°
2026-04-23 21:14 13.68488 100.74121 9 ft 11 kts 15°
2026-04-23 21:15 13.68532 100.74133 9 ft 9 kts 14°
2026-04-23 21:15 13.68591 100.74148 9 ft 8 kts 14°
2026-04-23 21:15 13.68650 100.74159 9 ft 12 kts 356°
2026-04-23 21:15 13.68720 100.74088 9 ft 16 kts 317°
2026-04-23 21:16 13.68796 100.74106 9 ft 10 kts
2026-04-23 21:16 13.68889 100.74120 9 ft 15 kts 13°
2026-04-23 21:16 13.69001 100.74148 8 ft 16 kts 14°
2026-04-23 21:16 13.69105 100.74175 8 ft 15 kts 14°
2026-04-23 21:17 13.69196 100.74200 8 ft 13 kts 14°
2026-04-23 21:17 13.69289 100.74225 8 ft 16 kts 15°
2026-04-23 21:17 13.69413 100.74259 7 ft 19 kts 15°
2026-04-23 21:17 13.69530 100.74292 7 ft 16 kts 15°
2026-04-23 21:18 13.69634 100.74319 7 ft 14 kts 14°
2026-04-23 21:18 13.69724 100.74342 7 ft 13 kts 13°
2026-04-23 21:18 13.69807 100.74362 7 ft 12 kts 13°
2026-04-23 21:18 13.69887 100.74382 7 ft 12 kts 14°
2026-04-23 21:19 13.69968 100.74404 8 ft 14 kts 15°
2026-04-23 21:19 13.70073 100.74433 8 ft 17 kts 15°
2026-04-23 21:19 13.70183 100.74460 8 ft 15 kts
2026-04-23 21:19 13.70236 100.74389 8 ft 12 kts 286°
2026-04-23 21:20 13.70252 100.74310 9 ft 12 kts 271°
2026-04-23 21:20 13.70191 100.74267 9 ft 12 kts 178°
2026-04-23 21:20 13.70105 100.74249 9 ft 15 kts 194°
2026-04-23 21:20 13.69831 100.74176 7 ft 78 kts 194°
2026-04-23 21:21 13.69067 100.73977 9 ft 144 kts 194°
2026-04-23 21:21 13.67964 100.73689 365 ft 163 kts 195°
2026-04-23 21:21 13.66964 100.73409 1468 ft 140 kts 197°
2026-04-23 21:21 13.66004 100.73100 1786 ft 158 kts 196°
2026-04-23 21:22 13.64846 100.72749 1800 ft 188 kts 195°
2026-04-23 21:22 13.63496 100.72367 1801 ft 211 kts 195°
2026-04-23 21:22 13.62002 100.71962 2169 ft 228 kts 194°
2026-04-23 21:22 13.60473 100.71562 2857 ft 231 kts 194°
2026-04-23 21:23 13.58898 100.71163 3531 ft 235 kts 194°
2026-04-23 21:23 13.57295 100.70765 4194 ft 239 kts 194°
2026-04-23 21:23 13.55669 100.70355 4877 ft 242 kts 198°
2026-04-23 21:23 13.54212 100.69480 5484 ft 248 kts 225°
2026-04-23 21:24 13.53320 100.67956 6101 ft 255 kts 254°
2026-04-23 21:24 13.53267 100.66126 6693 ft 262 kts 281°
2026-04-23 21:24 13.53717 100.64292 7331 ft 266 kts 283°
2026-04-23 21:24 13.54188 100.62449 7980 ft 268 kts 283°
2026-04-23 21:25 13.54677 100.60585 8626 ft 271 kts 288°
2026-04-23 21:25 13.55590 100.58881 9237 ft 276 kts 312°
2026-04-23 21:25 13.57118 100.57687 9805 ft 280 kts 336°
2026-04-23 21:25 13.59006 100.57230 9964 ft 281 kts
2026-04-23 21:26 13.60959 100.57288 10004 ft 280 kts
2026-04-23 21:26 13.62909 100.57353 10010 ft 281 kts
2026-04-23 21:26 13.64856 100.57411 10008 ft 280 kts
2026-04-23 21:26 13.66778 100.57465 10012 ft 280 kts
2026-04-23 21:27 13.68738 100.57519 10482 ft 282 kts
2026-04-23 21:27 13.70705 100.57573 11102 ft 284 kts
2026-04-23 21:27 13.72688 100.57625 11682 ft 286 kts
2026-04-23 21:27 13.74710 100.57663 12036 ft 299 kts 358°
2026-04-23 21:28 13.76853 100.57429 12164 ft 320 kts 348°
2026-04-23 21:28 13.79051 100.56777 12296 ft 339 kts 338°
2026-04-23 21:28 13.81214 100.55668 12424 ft 356 kts 328°
2026-04-23 21:28 13.83374 100.54296 12584 ft 371 kts 328°
2026-04-23 21:29 13.85597 100.52888 12992 ft 378 kts 328°
2026-04-23 21:29 13.87849 100.51467 13489 ft 382 kts 328°
2026-04-23 21:29 13.90111 100.50010 13957 ft 385 kts 324°
2026-04-23 21:29 13.92090 100.48201 14428 ft 386 kts 311°
2026-04-23 21:30 13.93670 100.45922 14895 ft 388 kts 298°
2026-04-23 21:30 13.94704 100.43352 15339 ft 391 kts 285°
2026-04-23 21:30 13.95198 100.40599 15774 ft 393 kts 278°
2026-04-23 21:30 13.95574 100.37842 16197 ft 395 kts 279°
2026-04-23 21:31 13.95966 100.35031 16629 ft 398 kts 279°
2026-04-23 21:31 13.96367 100.32197 17047 ft 400 kts 279°
2026-04-23 21:31 13.96774 100.29349 17458 ft 403 kts 279°
2026-04-23 21:31 13.97183 100.26486 17859 ft 405 kts 279°
2026-04-23 21:32 13.97534 100.23600 18216 ft 408 kts 274°
2026-04-23 21:32 13.97644 100.20669 18547 ft 411 kts 273°
2026-04-23 21:32 13.97748 100.17729 18913 ft 412 kts 272°
2026-04-23 21:32 13.97852 100.14778 19266 ft 413 kts 273°
2026-04-23 21:33 13.97958 100.11810 19615 ft 415 kts 273°
2026-04-23 21:33 13.98067 100.08830 19945 ft 417 kts 273°
2026-04-23 21:33 13.98177 100.05840 20273 ft 419 kts 273°
2026-04-23 21:33 13.98285 100.02864 20591 ft 422 kts 273°
2026-04-23 21:34 13.98394 99.99842 20915 ft 423 kts 273°
2026-04-23 21:34 13.98504 99.96806 21237 ft 425 kts 273°
2026-04-23 21:34 13.98615 99.93759 21551 ft 427 kts 273°
2026-04-23 21:34 13.98725 99.90690 21866 ft 429 kts 272°
2026-04-23 21:35 13.98833 99.87609 22173 ft 431 kts 272°
2026-04-23 21:35 13.98941 99.84515 22479 ft 434 kts 272°
2026-04-23 21:35 13.99049 99.81406 22778 ft 436 kts 272°
2026-04-23 21:35 13.99159 99.78279 23071 ft 438 kts 272°
2026-04-23 21:36 13.99379 99.71986 23606 ft 442 kts 272°
2026-04-23 21:36 13.99490 99.68819 23856 ft 443 kts 272°
2026-04-23 21:36 13.99599 99.65645 24111 ft 444 kts 272°
2026-04-23 21:37 13.99706 99.62461 24355 ft 446 kts 272°
2026-04-23 21:37 13.99814 99.59269 24600 ft 447 kts 272°
2026-04-23 21:37 13.99923 99.56063 24841 ft 448 kts 272°
2026-04-23 21:37 14.00033 99.52853 25082 ft 449 kts 272°
2026-04-23 21:38 14.00151 99.49634 25315 ft 450 kts 274°
2026-04-23 21:38 14.00354 99.46413 25550 ft 452 kts 275°
2026-04-23 21:38 14.00648 99.43190 25782 ft 453 kts 277°
2026-04-23 21:38 14.00998 99.39960 26014 ft 454 kts 277°
2026-04-23 21:39 14.01364 99.36729 26269 ft 455 kts 277°
2026-04-23 21:39 14.01722 99.33483 26500 ft 457 kts 277°
2026-04-23 21:39 14.02054 99.30268 26723 ft 458 kts 276°
2026-04-23 21:39 14.02373 99.27000 26947 ft 459 kts 276°
2026-04-23 21:40 14.02678 99.23720 27170 ft 460 kts 276°
2026-04-23 21:40 14.02978 99.20434 27377 ft 462 kts 276°
2026-04-23 21:40 14.03279 99.17140 27584 ft 463 kts 276°
2026-04-23 21:40 14.03585 99.13832 27785 ft 464 kts 276°
2026-04-23 21:41 14.03898 99.10521 27985 ft 465 kts 276°
2026-04-23 21:41 14.04214 99.07203 28190 ft 466 kts 276°
2026-04-23 21:41 14.04533 99.03871 28381 ft 468 kts 276°
2026-04-23 21:41 14.04851 99.00534 28573 ft 469 kts 276°
2026-04-23 21:42 14.05169 98.97188 28771 ft 470 kts 276°
2026-04-23 21:42 14.05455 98.93833 28973 ft 471 kts 275°
2026-04-23 21:42 14.05691 98.90459 29164 ft 472 kts 274°
2026-04-23 21:42 14.05892 98.87082 29436 ft 471 kts 274°
2026-04-23 21:43 14.06078 98.83718 29716 ft 470 kts 274°
2026-04-23 21:43 14.06266 98.80358 29975 ft 470 kts 274°
2026-04-23 21:43 14.06464 98.77002 30209 ft 469 kts 274°
2026-04-23 21:43 14.06672 98.73691 30436 ft 468 kts 274°
2026-04-23 21:44 14.06892 98.70350 30675 ft 467 kts 274°
2026-04-23 21:44 14.07117 98.67016 30917 ft 466 kts 274°
2026-04-23 21:44 14.07340 98.63685 31162 ft 465 kts 274°
2026-04-23 21:44 14.07559 98.60359 31412 ft 464 kts 274°
2026-04-23 21:45 14.07773 98.57040 31662 ft 463 kts 274°
2026-04-23 21:45 14.07983 98.53727 31915 ft 463 kts 274°
2026-04-23 21:45 14.08189 98.50426 32172 ft 462 kts 274°
2026-04-23 21:45 14.08393 98.47129 32417 ft 460 kts 274°
2026-04-23 21:46 14.08596 98.43842 32673 ft 460 kts 274°
2026-04-23 21:46 14.08801 98.40559 32907 ft 459 kts 274°
2026-04-23 21:46 14.09005 98.37318 33169 ft 458 kts 274°
2026-04-23 21:46 14.09211 98.34051 33425 ft 457 kts 274°
2026-04-23 21:47 14.09418 98.30786 33697 ft 456 kts 274°
2026-04-23 21:47 14.09625 98.27530 33812 ft 455 kts 274°
2026-04-23 21:47 14.09792 98.24277 33833 ft 454 kts 269°
2026-04-23 21:48 14.08740 98.17898 33823 ft 453 kts 250°
2026-04-23 21:48 14.06191 98.11942 33819 ft 456 kts 246°
2026-04-23 21:49 14.03558 98.05998 33824 ft 456 kts 246°
2026-04-23 21:49 14.00930 98.00047 33817 ft 456 kts 246°
2026-04-23 21:50 13.98294 97.94097 33823 ft 456 kts 246°
2026-04-23 21:50 13.95653 97.88157 33824 ft 456 kts 246°
2026-04-23 21:51 13.93019 97.82213 33818 ft 456 kts 246°
2026-04-23 21:51 13.90381 97.76273 33817 ft 456 kts 246°
2026-04-23 21:52 13.87762 97.70375 33813 ft 456 kts 246°
2026-04-23 21:52 13.85122 97.64444 33810 ft 456 kts 246°
2026-04-23 21:53 13.82477 97.58518 33819 ft 456 kts 246°
2026-04-23 21:53 13.79835 97.52582 33817 ft 455 kts 246°
2026-04-23 21:54 13.77201 97.46661 33815 ft 455 kts 246°
2026-04-23 21:54 13.74560 97.40741 33817 ft 455 kts 246°
2026-04-23 21:55 13.71910 97.34818 33794 ft 456 kts 246°
2026-04-23 21:55 13.69263 97.28889 33789 ft 456 kts 246°
2026-04-23 21:56 13.66612 97.22951 33804 ft 456 kts 246°
2026-04-23 21:56 13.63975 97.17059 33795 ft 457 kts 246°
2026-04-23 21:57 13.61317 97.11129 33803 ft 457 kts 246°
2026-04-23 21:57 13.58653 97.05196 33808 ft 457 kts 246°
2026-04-23 21:58 13.55999 96.99260 33806 ft 457 kts 246°
2026-04-23 21:58 13.53336 96.93331 33807 ft 457 kts 246°
2026-04-23 21:59 13.50667 96.87400 33807 ft 457 kts 245°
2026-04-23 21:59 13.47999 96.81474 33814 ft 457 kts 246°
2026-04-23 22:00 13.43993 96.72574 33812 ft 457 kts 246°
2026-04-23 22:00 13.41331 96.66646 33812 ft 457 kts 246°
2026-04-23 22:01 13.38683 96.60754 33805 ft 457 kts 246°
2026-04-23 22:01 13.36002 96.54820 33793 ft 458 kts 245°
2026-04-23 22:02 13.33755 96.49847 33809 ft 458 kts 245°
2026-04-23 22:02 13.31087 96.43944 33815 ft 458 kts 245°
2026-04-23 22:03 13.28403 96.38006 33819 ft 458 kts 245°
2026-04-23 22:03 13.25721 96.32079 33819 ft 458 kts 246°
2026-04-23 22:04 13.23043 96.26152 33819 ft 458 kts 246°
2026-04-23 22:04 13.20363 96.20214 33819 ft 458 kts 245°
2026-04-23 22:05 13.17672 96.14290 33810 ft 458 kts 245°
2026-04-23 22:05 13.14972 96.08370 33816 ft 457 kts 245°
2026-04-23 22:06 13.12286 96.02453 33812 ft 457 kts 245°
2026-04-23 22:06 13.09611 95.96536 33816 ft 457 kts 245°
2026-04-23 22:07 13.06945 95.90668 33814 ft 457 kts 245°
2026-04-23 22:07 13.04254 95.84763 33798 ft 457 kts 245°
2026-04-23 22:08 13.01562 95.78850 33800 ft 457 kts 245°
2026-04-23 22:08 12.98865 95.72942 33801 ft 458 kts 245°
2026-04-23 22:09 12.96162 95.67021 33816 ft 458 kts 245°
2026-04-23 22:09 12.93470 95.61103 33820 ft 458 kts 245°
2026-04-23 22:10 12.90785 95.55221 33820 ft 458 kts 245°
2026-04-23 22:10 12.88078 95.49315 33809 ft 458 kts 245°
2026-04-23 22:11 12.85388 95.43405 33805 ft 458 kts 245°
2026-04-23 22:11 12.82748 95.37468 33804 ft 458 kts 246°
2026-04-23 22:12 12.80105 95.31528 33802 ft 458 kts 245°
2026-04-23 22:12 12.77446 95.25606 33800 ft 458 kts 245°
2026-04-23 22:13 12.74776 95.19675 33815 ft 458 kts 245°
2026-04-23 22:13 12.72110 95.13747 33806 ft 458 kts 245°
2026-04-23 22:14 12.69446 95.07817 33801 ft 458 kts 245°
2026-04-23 22:14 12.66784 95.01886 33803 ft 459 kts 245°
2026-04-23 22:15 12.64115 94.95953 33809 ft 459 kts 245°
2026-04-23 22:15 12.61433 94.90018 33806 ft 459 kts 245°
2026-04-23 22:16 12.58770 94.84117 33811 ft 459 kts 245°
2026-04-23 22:16 12.56078 94.78142 33807 ft 459 kts 245°
2026-04-23 22:17 12.53418 94.72245 33806 ft 459 kts 245°
2026-04-23 22:17 12.50738 94.66307 33806 ft 459 kts 245°
2026-04-23 22:18 12.48059 94.60382 33802 ft 459 kts 245°
2026-04-23 22:18 12.45374 94.54453 33804 ft 459 kts 245°
2026-04-23 22:19 12.42687 94.48533 33806 ft 458 kts 245°
2026-04-23 22:19 12.40011 94.42611 33808 ft 458 kts 245°
2026-04-23 22:20 12.37342 94.36689 33802 ft 458 kts 245°
2026-04-23 22:20 12.34701 94.30795 33799 ft 459 kts 245°
2026-04-23 22:21 12.32031 94.24854 33801 ft 459 kts 245°
2026-04-23 22:21 12.29362 94.18917 33802 ft 460 kts 245°
2026-04-23 22:22 12.26684 94.12973 33804 ft 460 kts 245°
2026-04-23 22:22 12.24010 94.07032 33805 ft 460 kts 245°
2026-04-23 22:23 12.21328 94.01088 33805 ft 460 kts 245°
2026-04-23 22:23 12.18697 93.95174 33805 ft 460 kts 245°
2026-04-23 22:24 12.16072 93.89213 33815 ft 460 kts 246°
2026-04-23 22:24 12.13421 93.83213 33807 ft 460 kts 245°
2026-04-23 22:25 12.10787 93.77295 33814 ft 460 kts 245°
2026-04-23 22:25 12.08141 93.71346 33816 ft 460 kts 245°
2026-04-23 22:26 12.05496 93.65401 33812 ft 460 kts 245°
2026-04-23 22:26 12.02854 93.59453 33813 ft 459 kts 245°
2026-04-23 22:27 12.00201 93.53511 33801 ft 460 kts 245°
2026-04-23 22:27 11.97548 93.47562 33809 ft 461 kts 245°
2026-04-23 22:28 11.94888 93.41602 33817 ft 461 kts 245°
2026-04-23 22:28 11.92229 93.35635 33816 ft 461 kts 245°
2026-04-23 22:29 11.89571 93.29680 33814 ft 461 kts 245°
2026-04-23 22:29 11.86904 93.23727 33819 ft 461 kts 245°
2026-04-23 22:30 11.84261 93.17813 33811 ft 461 kts 245°
2026-04-23 22:30 11.81605 93.11867 33801 ft 460 kts 245°
2026-04-23 22:31 11.78941 93.05929 33803 ft 460 kts 245°
2026-04-23 22:31 11.76272 92.99991 33806 ft 460 kts 245°
2026-04-23 22:32 11.73606 92.94054 33816 ft 460 kts 245°
2026-04-23 22:32 11.70946 92.88113 33807 ft 460 kts 245°
2026-04-23 22:33 11.68283 92.82173 33819 ft 460 kts 245°
2026-04-23 22:33 11.65613 92.76235 33818 ft 460 kts 245°
2026-04-23 22:34 11.63504 92.70085 33812 ft 460 kts 252°
2026-04-23 22:34 11.61596 92.63854 33819 ft 460 kts 252°
2026-04-23 22:35 11.59675 92.57632 33821 ft 460 kts 252°
2026-04-23 22:35 11.57770 92.51441 33816 ft 460 kts 252°
2026-04-23 22:36 11.55855 92.45210 33819 ft 460 kts 252°
2026-04-23 22:36 11.53934 92.38978 33824 ft 460 kts 252°
2026-04-23 22:37 11.52014 92.32748 33820 ft 460 kts 252°
2026-04-23 22:37 11.50090 92.26529 33825 ft 460 kts 252°
2026-04-23 22:38 11.48168 92.20314 33822 ft 459 kts 252°
2026-04-23 22:38 11.46244 92.14105 33827 ft 459 kts 252°
2026-04-23 22:39 11.44321 92.07897 33819 ft 459 kts 252°
2026-04-23 22:39 11.42395 92.01690 33818 ft 459 kts 252°
2026-04-23 22:40 11.40475 91.95489 33815 ft 459 kts 252°
2026-04-23 22:41 11.37598 91.86183 33814 ft 459 kts 252°
2026-04-23 22:41 11.35668 91.79988 33822 ft 459 kts 252°
2026-04-23 22:42 11.33670 91.73859 33824 ft 459 kts 250°
2026-04-23 22:42 11.31567 91.67723 33834 ft 458 kts 250°
2026-04-23 22:43 11.29461 91.61588 33820 ft 459 kts 250°
2026-04-23 22:43 11.27374 91.55440 33823 ft 459 kts 250°
2026-04-23 22:44 11.25304 91.49286 33823 ft 459 kts 250°
2026-04-23 22:44 11.23232 91.43135 33824 ft 459 kts 250°
2026-04-23 22:45 11.21151 91.36992 33829 ft 459 kts 250°
2026-04-23 22:45 11.19067 91.30847 33827 ft 459 kts 250°
2026-04-23 22:46 11.17333 91.25740 33825 ft 459 kts 250°
2026-04-23 22:46 11.15250 91.19605 33815 ft 458 kts 250°
2026-04-23 22:47 11.13167 91.13470 33820 ft 458 kts 250°
2026-04-23 22:47 11.11083 91.07337 33820 ft 458 kts 250°
2026-04-23 22:48 11.08997 91.01207 33835 ft 458 kts 250°
2026-04-23 22:48 11.06911 90.95075 33831 ft 458 kts 250°
2026-04-23 22:49 11.04828 90.88939 33823 ft 458 kts 250°
2026-04-23 22:49 11.02755 90.82858 33824 ft 458 kts 250°
2026-04-23 22:50 11.00650 90.76694 33823 ft 458 kts 250°
2026-04-23 22:50 10.98572 90.70608 33832 ft 458 kts 250°
2026-04-23 22:51 10.96483 90.64485 33839 ft 458 kts 250°
2026-04-23 22:51 10.94395 90.58360 33840 ft 458 kts 250°
2026-04-23 22:52 10.92297 90.52238 33814 ft 458 kts 250°
2026-04-23 22:52 10.90196 90.46110 33815 ft 459 kts 250°
2026-04-23 22:53 10.88094 90.39967 33819 ft 460 kts 250°
2026-04-23 22:53 10.85989 90.33818 33825 ft 460 kts 250°
2026-04-23 22:54 10.83881 90.27676 33829 ft 460 kts 250°
2026-04-23 22:54 10.81776 90.21535 33835 ft 460 kts 250°
2026-04-23 22:55 10.79664 90.15395 33839 ft 460 kts 250°
2026-04-23 22:55 10.77575 90.09293 33835 ft 460 kts 250°
2026-04-23 22:56 10.75462 90.03151 33825 ft 460 kts 250°
2026-04-23 22:56 10.73333 89.97020 33845 ft 459 kts 249°
2026-04-23 22:57 10.71125 89.90938 33848 ft 458 kts 248°
2026-04-23 22:57 10.68894 89.84889 33849 ft 456 kts 248°
2026-04-23 22:58 10.66671 89.78848 33834 ft 456 kts 249°
2026-04-23 22:58 10.64473 89.72806 33837 ft 455 kts 249°
2026-04-23 22:59 10.62283 89.66764 33840 ft 455 kts 249°
2026-04-23 22:59 10.60084 89.60721 33837 ft 455 kts 249°
2026-04-23 23:00 10.57904 89.54737 33834 ft 455 kts 249°
2026-04-23 23:00 10.55703 89.48709 33824 ft 455 kts 249°
2026-04-23 23:01 10.53488 89.42671 33820 ft 456 kts 249°
2026-04-23 23:01 10.51276 89.36629 33816 ft 456 kts 249°
2026-04-23 23:02 10.49069 89.30591 33814 ft 456 kts 249°
2026-04-23 23:02 10.46854 89.24550 33814 ft 456 kts 249°
2026-04-23 23:03 10.44655 89.18544 33828 ft 456 kts 249°
2026-04-23 23:03 10.42440 89.12501 33828 ft 456 kts 248°
2026-04-23 23:04 10.40221 89.06461 33826 ft 456 kts 249°
2026-04-23 23:04 10.38005 89.00419 33828 ft 456 kts 248°
2026-04-23 23:05 10.35785 88.94390 33836 ft 456 kts 248°
2026-04-23 23:05 10.33568 88.88360 33833 ft 455 kts 249°
2026-04-23 23:06 10.31367 88.82370 33835 ft 455 kts 248°
2026-04-23 23:06 10.29151 88.76353 33834 ft 454 kts 248°
2026-04-23 23:07 10.26939 88.70345 33841 ft 454 kts 248°
2026-04-23 23:07 10.24731 88.64335 33836 ft 454 kts 248°
2026-04-23 23:08 10.22512 88.58325 33834 ft 454 kts 248°
2026-04-23 23:08 10.20298 88.52318 33835 ft 454 kts 248°
2026-04-23 23:09 10.18081 88.46315 33833 ft 454 kts 248°
2026-04-23 23:09 10.15861 88.40310 33832 ft 454 kts 248°
2026-04-23 23:10 10.13639 88.34300 33831 ft 454 kts 248°
2026-04-23 23:10 10.11441 88.28333 33833 ft 454 kts 248°
2026-04-23 23:11 10.09219 88.22330 33827 ft 454 kts 248°
2026-04-23 23:11 10.06993 88.16329 33825 ft 454 kts 248°
2026-04-23 23:12 10.04768 88.10326 33829 ft 454 kts 248°
2026-04-23 23:12 10.02552 88.04324 33833 ft 454 kts 248°
2026-04-23 23:13 10.00341 87.98333 33838 ft 453 kts 248°
2026-04-23 23:13 9.98123 87.92351 33838 ft 453 kts 248°
2026-04-23 23:14 9.95896 87.86363 33839 ft 453 kts 248°
2026-04-23 23:14 9.93675 87.80393 33837 ft 453 kts 248°
2026-04-23 23:15 9.91453 87.74416 33842 ft 453 kts 248°
2026-04-23 23:15 9.89241 87.68482 33845 ft 453 kts 248°
2026-04-23 23:16 9.87020 87.62506 33851 ft 452 kts 248°
2026-04-23 23:16 9.84806 87.56538 33848 ft 452 kts 248°
2026-04-23 23:17 9.82585 87.50576 33848 ft 452 kts 248°
2026-04-23 23:17 9.80361 87.44616 33839 ft 452 kts 248°
2026-04-23 23:18 9.78136 87.38657 33828 ft 452 kts 248°
2026-04-23 23:18 9.75920 87.32692 33828 ft 452 kts 249°
2026-04-23 23:19 9.73825 87.26674 33830 ft 452 kts 250°
2026-04-23 23:19 9.71789 87.20643 33829 ft 452 kts 250°
2026-04-23 23:20 9.69723 87.14622 33831 ft 452 kts 249°
2026-04-23 23:20 9.67624 87.08611 33831 ft 452 kts 249°
2026-04-23 23:21 9.65539 87.02637 33829 ft 453 kts 249°
2026-04-23 23:21 9.63441 86.96607 33831 ft 453 kts 249°
2026-04-23 23:22 9.61346 86.90588 33845 ft 452 kts 249°
2026-04-23 23:22 9.59256 86.84583 33848 ft 452 kts 249°
2026-04-23 23:23 9.57164 86.78580 33842 ft 451 kts 249°
2026-04-23 23:23 9.55078 86.72588 33839 ft 450 kts 249°
2026-04-23 23:24 9.52994 86.66602 33835 ft 450 kts 249°
2026-04-23 23:24 9.50906 86.60618 33834 ft 450 kts 249°
2026-04-23 23:25 9.48825 86.54671 33835 ft 450 kts 249°
2026-04-23 23:25 9.46728 86.48691 33842 ft 450 kts 249°
2026-04-23 23:26 9.44644 86.42709 33844 ft 450 kts 249°
2026-04-23 23:26 9.42554 86.36725 33838 ft 450 kts 249°
2026-04-23 23:27 9.40460 86.30752 33836 ft 450 kts 249°
2026-04-23 23:27 9.38369 86.24784 33836 ft 449 kts 249°
2026-04-23 23:28 9.36282 86.18816 33831 ft 449 kts 249°
2026-04-23 23:28 9.34209 86.12897 33834 ft 449 kts 249°
2026-04-23 23:29 9.32122 86.06942 33832 ft 448 kts 249°
2026-04-23 23:29 9.30028 86.00995 33833 ft 448 kts 249°
2026-04-23 23:30 9.27935 85.95051 33829 ft 448 kts 249°
2026-04-23 23:30 9.25846 85.89111 33830 ft 447 kts 249°
2026-04-23 23:31 9.23776 85.83167 33831 ft 447 kts 249°
2026-04-23 23:31 9.21754 85.77207 33827 ft 447 kts 250°
2026-04-23 23:32 9.19755 85.71281 33819 ft 447 kts 250°
2026-04-23 23:32 9.17741 85.65323 33819 ft 447 kts 249°
2026-04-23 23:33 9.16042 85.60331 33824 ft 447 kts 249°
2026-04-23 23:33 9.14027 85.54411 33823 ft 448 kts 249°
2026-04-23 23:34 9.11994 85.48452 33817 ft 448 kts 249°
2026-04-23 23:34 9.09957 85.42499 33818 ft 448 kts 249°
2026-04-23 23:35 9.07924 85.36548 33826 ft 448 kts 250°
2026-04-23 23:35 9.05891 85.30592 33827 ft 448 kts 250°
2026-04-23 23:36 9.03853 85.24630 33819 ft 448 kts 250°
2026-04-23 23:36 9.01809 85.18671 33819 ft 449 kts 250°
2026-04-23 23:37 8.99769 85.12699 33822 ft 449 kts 250°
2026-04-23 23:37 8.97730 85.06713 33824 ft 450 kts 250°
2026-04-23 23:38 8.95684 85.00741 33824 ft 450 kts 250°
2026-04-23 23:38 8.93631 84.94758 33827 ft 450 kts 250°
2026-04-23 23:39 8.91574 84.88775 33830 ft 450 kts 250°
2026-04-23 23:39 8.89520 84.82792 33823 ft 451 kts 250°
2026-04-23 23:40 8.87469 84.76798 33826 ft 451 kts 250°
2026-04-23 23:40 8.85456 84.70837 33825 ft 450 kts 250°
2026-04-23 23:41 8.83443 84.64837 33827 ft 450 kts 250°
2026-04-23 23:41 8.81419 84.58849 33823 ft 450 kts 249°
2026-04-23 23:42 8.79377 84.52856 33818 ft 451 kts 249°
2026-04-23 23:42 8.77340 84.46858 33821 ft 451 kts 250°
2026-04-23 23:43 8.75307 84.40852 33825 ft 451 kts 250°
2026-04-23 23:43 8.73271 84.34843 33825 ft 451 kts 250°
2026-04-23 23:44 8.71237 84.28840 33822 ft 451 kts 250°
2026-04-23 23:44 8.69221 84.22873 33823 ft 451 kts 249°
2026-04-23 23:45 8.67182 84.16877 33827 ft 451 kts 250°
2026-04-23 23:45 8.65142 84.10888 33820 ft 451 kts 249°
2026-04-23 23:46 8.63106 84.04888 33814 ft 451 kts 249°
2026-04-23 23:46 8.61058 83.98883 33814 ft 452 kts 249°
2026-04-23 23:47 8.59005 83.92878 33821 ft 452 kts 249°
2026-04-23 23:47 8.56962 83.86870 33822 ft 452 kts 249°
2026-04-23 23:48 8.54920 83.80870 33820 ft 451 kts 249°
2026-04-23 23:48 8.52880 83.74870 33819 ft 451 kts 249°
2026-04-23 23:49 8.49820 83.65918 33824 ft 451 kts 249°
2026-04-23 23:49 8.47770 83.59924 33822 ft 451 kts 249°
2026-04-23 23:50 8.45719 83.53927 33825 ft 451 kts 249°
2026-04-23 23:50 8.43672 83.47932 33830 ft 451 kts 250°
2026-04-23 23:51 8.41628 83.41945 33828 ft 451 kts 250°
2026-04-23 23:51 8.39582 83.35966 33826 ft 450 kts 249°
2026-04-23 23:52 8.37529 83.29984 33826 ft 450 kts 249°
2026-04-23 23:52 8.35489 83.24041 33825 ft 450 kts 249°
2026-04-23 23:53 8.33436 83.18054 33823 ft 450 kts 249°
2026-04-23 23:53 8.31385 83.12089 33826 ft 450 kts 249°
2026-04-23 23:54 8.29331 83.06112 33826 ft 450 kts 250°
2026-04-23 23:54 8.27292 83.00137 33822 ft 450 kts 250°
2026-04-23 23:55 8.25244 82.94167 33820 ft 450 kts 249°
2026-04-23 23:55 8.23182 82.88199 33821 ft 450 kts 249°
2026-04-23 23:56 8.21123 82.82268 33819 ft 450 kts 249°
2026-04-23 23:56 8.19011 82.76268 33823 ft 451 kts 249°
2026-04-23 23:57 8.16938 82.70345 33823 ft 451 kts 249°
2026-04-23 23:57 8.14828 82.64337 33824 ft 451 kts 249°
2026-04-23 23:58 8.12744 82.58400 33826 ft 451 kts 249°
2026-04-23 23:58 8.10649 82.52430 33829 ft 451 kts 249°
2026-04-23 23:59 8.08551 82.46458 33830 ft 451 kts 249°
2026-04-23 23:59 8.06457 82.40480 33834 ft 451 kts 249°
2026-04-24 00:00 8.04367 82.34514 33841 ft 451 kts 249°
2026-04-24 00:00 8.02265 82.28560 33844 ft 450 kts 249°
2026-04-24 00:01 8.00163 82.22611 33846 ft 450 kts 249°
2026-04-24 00:01 7.98061 82.16661 33845 ft 450 kts 249°
2026-04-24 00:02 7.95968 82.10715 33842 ft 450 kts 249°
2026-04-24 00:02 7.93878 82.04772 33838 ft 449 kts 249°
2026-04-24 00:03 7.91786 81.98831 33835 ft 449 kts 249°
2026-04-24 00:03 7.89709 81.92929 33827 ft 449 kts 249°
2026-04-24 00:04 7.87612 81.86991 33824 ft 449 kts 249°
2026-04-24 00:04 7.85508 81.81060 33822 ft 449 kts 249°
2026-04-24 00:05 7.83405 81.75127 33820 ft 449 kts 249°
2026-04-24 00:05 7.81309 81.69194 33805 ft 449 kts 249°
2026-04-24 00:06 7.80263 81.66226 33553 ft 450 kts 249°
2026-04-24 00:06 7.79215 81.63250 33301 ft 451 kts 249°
2026-04-24 00:06 7.78160 81.60263 32860 ft 453 kts 249°
2026-04-24 00:06 7.77090 81.57245 31748 ft 463 kts 249°
2026-04-24 00:07 7.75994 81.54165 30787 ft 469 kts 249°
2026-04-24 00:07 7.74888 81.51049 30030 ft 472 kts 250°
2026-04-24 00:07 7.73836 81.47929 29328 ft 470 kts 254°
2026-04-24 00:07 7.73211 81.44711 28665 ft 467 kts 263°
2026-04-24 00:08 7.72867 81.41463 28009 ft 464 kts 264°
2026-04-24 00:08 7.72524 81.38276 27368 ft 462 kts 264°
2026-04-24 00:08 7.72173 81.35067 26727 ft 460 kts 264°
2026-04-24 00:08 7.71820 81.31868 26095 ft 457 kts 264°
2026-04-24 00:09 7.71466 81.28688 25466 ft 456 kts 264°
2026-04-24 00:09 7.71113 81.25525 24844 ft 454 kts 263°
2026-04-24 00:09 7.70762 81.22360 24227 ft 453 kts 263°
2026-04-24 00:09 7.70416 81.19224 23626 ft 446 kts 264°
2026-04-24 00:10 7.70079 81.16156 23010 ft 435 kts 264°
2026-04-24 00:10 7.69713 81.13165 22472 ft 426 kts 259°
2026-04-24 00:10 7.68953 81.10297 21976 ft 422 kts 250°
2026-04-24 00:10 7.67965 81.07525 21481 ft 419 kts 250°
2026-04-24 00:11 7.66989 81.04776 21026 ft 415 kts 250°
2026-04-24 00:11 7.66025 81.02053 20557 ft 411 kts 251°
2026-04-24 00:11 7.65068 80.99350 20085 ft 408 kts 251°
2026-04-24 00:11 7.64120 80.96669 19615 ft 405 kts 251°
2026-04-24 00:12 7.63175 80.94004 19129 ft 403 kts 251°
2026-04-24 00:12 7.62233 80.91344 18647 ft 401 kts 251°
2026-04-24 00:12 7.61299 80.88702 18149 ft 401 kts 250°
2026-04-24 00:12 7.60362 80.86054 17598 ft 400 kts 250°
2026-04-24 00:13 7.59426 80.83417 17092 ft 398 kts 250°
2026-04-24 00:13 7.58492 80.80792 16582 ft 397 kts 250°
2026-04-24 00:13 7.57560 80.78177 16067 ft 396 kts 250°
2026-04-24 00:13 7.56637 80.75581 15551 ft 389 kts 250°
2026-04-24 00:14 7.55731 80.73036 15061 ft 383 kts 250°
2026-04-24 00:14 7.54850 80.70561 14567 ft 376 kts 250°
2026-04-24 00:14 7.53975 80.68106 14084 ft 370 kts 250°
2026-04-24 00:14 7.53116 80.65686 13592 ft 364 kts 250°
2026-04-24 00:15 7.52272 80.63306 13073 ft 358 kts 250°
2026-04-24 00:15 7.51437 80.60955 12613 ft 355 kts 250°
2026-04-24 00:15 7.50615 80.58644 12473 ft 344 kts 250°
2026-04-24 00:15 7.49828 80.56434 12339 ft 325 kts 250°
2026-04-24 00:16 7.49092 80.54364 12213 ft 304 kts 250°
2026-04-24 00:16 7.48397 80.52415 12049 ft 288 kts 250°
2026-04-24 00:16 7.47737 80.50556 11881 ft 278 kts 250°
2026-04-24 00:16 7.47087 80.48724 11769 ft 276 kts 250°
2026-04-24 00:17 7.46440 80.46909 11644 ft 275 kts 250°
2026-04-24 00:17 7.46012 80.45707 11471 ft 275 kts 250°
2026-04-24 00:17 7.45152 80.43299 11027 ft 276 kts 250°
2026-04-24 00:17 7.44502 80.41482 10748 ft 274 kts 250°
2026-04-24 00:18 7.44064 80.40259 10484 ft 275 kts 250°
2026-04-24 00:18 7.43423 80.38466 10086 ft 269 kts 250°
2026-04-24 00:18 7.42797 80.36707 9720 ft 265 kts 250°
2026-04-24 00:18 7.42170 80.34948 9334 ft 267 kts 250°
2026-04-24 00:19 7.41563 80.33210 8980 ft 267 kts 254°
2026-04-24 00:19 7.41233 80.31378 8614 ft 266 kts 262°
2026-04-24 00:19 7.40979 80.29533 8282 ft 265 kts 262°
2026-04-24 00:19 7.40723 80.27700 7934 ft 265 kts 262°
2026-04-24 00:20 7.40465 80.25875 7619 ft 263 kts 262°
2026-04-24 00:20 7.40206 80.24048 7331 ft 261 kts 262°
2026-04-24 00:20 7.39950 80.22237 6925 ft 259 kts 262°
2026-04-24 00:20 7.39699 80.20455 6543 ft 256 kts 262°
2026-04-24 00:21 7.39448 80.18675 6193 ft 257 kts 262°
2026-04-24 00:21 7.39196 80.16896 5829 ft 254 kts 262°
2026-04-24 00:21 7.38946 80.15139 5497 ft 253 kts 262°
2026-04-24 00:21 7.38698 80.13381 5155 ft 253 kts 262°
2026-04-24 00:22 7.38453 80.11643 4815 ft 246 kts 262°
2026-04-24 00:22 7.38218 80.09969 4494 ft 238 kts 262°
2026-04-24 00:22 7.37991 80.08348 4175 ft 230 kts 261°
2026-04-24 00:22 7.37771 80.06774 3875 ft 223 kts 261°
2026-04-24 00:23 7.37556 80.05241 3586 ft 221 kts 261°
2026-04-24 00:23 7.37153 80.03755 3295 ft 220 kts 243°
2026-04-24 00:23 7.36308 80.02480 2999 ft 219 kts 225°
2026-04-24 00:23 7.35183 80.01469 2702 ft 212 kts 217°
2026-04-24 00:24 7.34053 80.00592 2425 ft 203 kts 216°
2026-04-24 00:24 7.32968 79.99762 2174 ft 189 kts 216°
2026-04-24 00:24 7.31959 79.98989 1919 ft 174 kts 216°
2026-04-24 00:24 7.31044 79.98288 1790 ft 152 kts 216°
2026-04-24 00:25 7.30225 79.97659 1724 ft 145 kts 216°
2026-04-24 00:25 7.29436 79.97055 1668 ft 141 kts 216°
2026-04-24 00:25 7.28654 79.96456 1611 ft 140 kts 216°
2026-04-24 00:25 7.27883 79.95864 1548 ft 139 kts 216°
2026-04-24 00:26 7.27115 79.95276 1503 ft 138 kts 216°
2026-04-24 00:26 7.26349 79.94688 1506 ft 139 kts 216°
2026-04-24 00:26 7.25579 79.94098 1434 ft 139 kts 216°
2026-04-24 00:26 7.24810 79.93508 1298 ft 139 kts 216°
2026-04-24 00:27 7.24050 79.92926 1139 ft 138 kts 217°
2026-04-24 00:27 7.23282 79.92337 970 ft 139 kts 216°
2026-04-24 00:27 7.22512 79.91746 796 ft 140 kts 216°
2026-04-24 00:27 7.21731 79.91148 631 ft 141 kts 216°
2026-04-24 00:28 7.20951 79.90542 446 ft 143 kts 217°
2026-04-24 00:28 7.20158 79.89929 242 ft 145 kts 213°
2026-04-24 00:28 7.19360 79.89327 84 ft 142 kts 214°
2026-04-24 00:28 7.18595 79.88746 39 ft 126 kts 213°
2026-04-24 00:29 7.18085 79.88371 34 ft 48 kts 217°
2026-04-24 00:29 7.18005 79.88308 35 ft 9 kts 219°
2026-04-24 00:29 7.17936 79.88250 35 ft 12 kts 219°
2026-04-24 00:29 7.17866 79.88237 36 ft 10 kts 137°
2026-04-24 00:30 7.17815 79.88301 35 ft 13 kts 126°
2026-04-24 00:30 7.17802 79.88370 34 ft 12 kts 58°
2026-04-24 00:30 7.17856 79.88442 34 ft 13 kts 89°
2026-04-24 00:30 7.17809 79.88510 34 ft 13 kts 128°
2026-04-24 00:31 7.17766 79.88552 34 ft 3 kts 203°
2026-04-24 00:31 7.17744 79.88535 32 ft 6 kts 219°
2026-04-24 00:31 7.17715 79.88510 34 ft 3 kts 219°
2026-04-24 00:31 7.17706 79.88503 34 ft 1 kts 219°
2026-04-24 00:32 7.17697 79.88496 34 ft 2 kts 219°
2026-04-24 00:32 7.17694 79.88494 34 ft 0 kts 219°